Dewpoint
55 55 55 55 55 55 56 56 57 57 57 57 57 57 55 55 55 50 32 41 42 57 63 56 54 57 57 56 59 62 56 51 49 50 55 55 56 58 58 57 58 59 60 62 63
55 55 54 55 55 55 55 56 56 56 57 57 57 56 55 55 48 38 48 50 52 56 56 53 52 55 53 53 54 59 57 55 57 52 56 56 56 57 56 56 57 59 61 63 62
54 54 55 54 54 55 56 56 56 56 56 56 56 56 55 54 42 33 55 55 60 57 56 54 53 53 50 50 52 54 56 53 53 56 54 54 56 56 56 54 56 58 61 62 62
53 54 54 54 54 55 55 56 56 56 56 56 57 56 55 50 28 39 59 63 65 52 56 51 50 48 45 45 49 49 50 53 55 57 54 54 54 53 57 57 56 59 62 62 62
54 55 55 54 54 55 55 55 55 55 55 56 57 56 52 40 23 35 60 62 57 44 50 49 47 45 40 41 44 47 49 53 54 54 54 57 51 54 55 56 58 60 61 61 61
55 55 55 55 55 55 55 55 55 55 55 57 58 56 49 28 28 33 46 52 47 37 46 46 43 43 37 35 37 39 44 50 53 53 53 51 50 52 56 58 59 60 60 61 60
55 55 55 55 54 54 54 54 57 55 57 57 57 53 40 28 32 33 44 44 45 35 39 44 41 39 33 30 31 36 38 42 46 53 52 51 53 49 56 58 59 59 60 60 59
55 55 55 55 54 54 54 54 57 55 56 57 57 51 28 26 31 30 40 42 41 37 36 44 37 35 33 28 27 31 33 35 41 48 51 51 48 49 56 57 58 58 59 60 59
54 55 55 55 54 54 54 53 58 57 57 58 55 46 20 35 22 22 35 40 44 44 41 38 37 34 32 26 23 21 26 30 34 39 46 50 51 56 55 56 58 58 58 58 59
54 54 54 54 53 53 53 53 57 57 57 50 43 34 17 16 20 21 26 37 45 37 39 37 36 29 29 26 16 16 19 22 30 45 46 48 52 62 56 54 57 58 58 58 58
54 54 54 53 53 52 47 42 43 38 32 17 15 13 14 17 20 28 35 39 39 36 28 33 29 22 24 26 22 14 14 20 27 48 45 46 50 61 53 52 57 58 57 58 58
54 53 53 53 52 52 45 25 28 29 21 14 14 13 14 17 14 25 37 32 35 35 31 22 20 22 20 19 18 16 17 19 24 35 46 46 47 50 52 53 56 57 57 57 57
53 53 53 52 52 44 29 30 31 30 21 14 10 9 10 13 13 16 27 33 29 32 31 25 20 20 20 19 18 17 17 19 25 26 41 44 47 48 58 52 55 56 58 56 57
53 53 52 51 43 30 30 31 31 29 18 12 8 8 10 11 12 17 25 28 28 27 23 23 22 20 19 17 19 19 17 15 18 26 28 39 40 52 51 51 53 55 56 57 56
53 52 51 50 42 29 32 31 28 27 8 10 8 11 11 9 14 15 21 24 21 21 27 24 22 21 21 19 18 20 18 15 13 15 27 30 34 46 50 52 50 53 55 56 57
52 51 50 45 40 31 32 30 25 15 5 8 10 9 10 10 10 14 17 19 21 22 22 24 26 23 21 22 21 21 19 18 16 12 13 26 30 37 42 45 48 51 53 55 56
50 50 48 39 32 32 32 29 18 6 14 11 10 8 9 10 11 12 15 15 12 16 13 14 18 23 28 23 23 23 20 17 15 13 10 13 24 33 39 46 46 49 52 54 56
49 48 45 35 33 33 32 27 18 13 11 14 10 11 9 11 11 11 13 12 20 16 12 11 10 15 19 25 24 23 21 18 21 14 12 14 11 23 33 40 46 49 50 52 54
49 39 34 33 34 32 31 23 21 20 19 17 15 12 10 12 12 14 14 12 15 20 16 8 9 18 19 19 23 25 22 20 17 17 15 12 11 10 26 33 44 52 48 51 53
42 31 32 34 33 32 28 27 24 24 24 21 18 15 15 13 14 14 14 17 20 22 20 16 17 19 17 23 26 25 24 20 19 22 21 16 19 11 18 26 33 40 42 47 52
43 33 33 34 32 31 25 28 26 26 27 24 23 21 19 18 18 17 17 17 19 21 23 17 17 17 11 20 23 21 24 26 23 19 19 19 17 22 22 23 31 35 41 44 50
33 28 35 35 31 30 27 28 30 25 27 26 26 25 23 23 22 21 19 19 22 22 21 21 17 15 14 11 12 15 18 17 23 28 21 20 18 21 22 19 29 34 38 40 44
32 33 34 33 28 26 29 26 27 26 27 27 25 24 25 23 23 23 22 22 23 24 22 23 20 18 15 13 15 14 20 24 23 21 28 20 20 24 26 26 25 28 33 41 43
35 31 32 31 30 28 30 28 26 28 27 28 28 27 25 24 25 25 22 23 25 24 37 29 23 23 14 16 18 18 15 21 22 22 23 24 25 26 28 30 32 32 34 38 45
35 31 35 29 30 30 31 29 27 29 30 30 29 28 27 26 24 24 24 23 23 27 28 26 23 21 17 16 16 16 17 19 21 28 29 26 27 30 30 31 33 36 39 39 42
36 36 33 33 34 33 32 33 32 33 33 30 29 30 29 31 29 31 30 30 28 28 28 24 22 25 26 22 16 15 14 16 23 26 29 30 32 33 34 39 33 37 41 47 48
40 40 37 35 32 33 31 33 34 35 35 34 34 34 32 30 31 31 30 28 26 27 28 30 35 27 23 20 18 15 14 12 14 20 23 25 32 35 35 38 43 42 47 48 49
Lifted_Index
15 16 16 16 16 16 15 15 14 14 14 14 14 14 15 15 15 13 12 13 13 11 7 4 3 2 1 0 -1 -2 -2 -2 -2 -2 -3 -3 -3 -3 -3 -3 -2 -2 -2 -2 -2
16 16 16 16 16 16 15 15 15 14 14 14 14 14 15 15 14 12 12 12 12 10 6 3 3 2 1 1 -0 -2 -2 -2 -2 -2 -2 -3 -3 -3 -3 -3 -2 -2 -2 -2 -2
16 16 15 15 15 15 15 15 15 15 14 14 14 14 14 13 12 11 11 10 10 8 5 3 3 2 2 1 0 -1 -2 -2 -2 -2 -2 -3 -3 -3 -3 -2 -2 -2 -2 -2 -2
15 15 15 15 15 15 15 14 14 14 14 14 14 14 14 12 11 10 9 7 7 7 5 3 3 3 3 2 1 -0 -1 -2 -2 -2 -2 -2 -3 -3 -3 -2 -2 -3 -2 -2 -2
14 14 14 14 15 14 14 14 14 14 14 13 13 13 12 11 11 11 8 7 7 8 6 4 4 4 3 3 2 1 -0 -1 -2 -2 -2 -2 -2 -3 -3 -2 -2 -3 -2 -2 -2
14 14 14 14 14 14 14 14 14 14 13 12 12 12 11 11 12 11 8 7 8 8 7 5 5 5 5 4 4 3 1 -0 -1 -2 -2 -2 -2 -2 -2 -2 -3 -3 -2 -2 -2
14 14 14 14 15 15 15 14 13 13 12 12 11 10 10 11 11 11 9 7 8 9 7 6 6 6 6 6 5 4 3 1 -0 -1 -2 -2 -2 -2 -2 -2 -2 -2 -2 -2 -2
14 14 14 14 15 15 15 14 13 12 12 11 10 10 10 12 12 11 9 8 8 8 7 6 7 7 7 7 6 5 4 3 1 -0 -1 -2 -2 -2 -2 -3 -2 -2 -2 -2 -2
14 14 14 14 15 15 15 13 12 11 11 10 9 9 11 12 13 12 10 8 7 7 7 7 7 7 7 7 6 5 4 3 2 1 -1 -2 -2 -2 -3 -3 -3 -2 -2 -2 -2
14 14 14 14 15 15 14 13 11 10 10 10 9 10 12 13 13 12 10 8 7 7 7 7 7 7 7 6 5 4 4 3 1 -0 -1 -2 -2 -2 -3 -3 -3 -2 -2 -2 -2
13 13 14 14 14 14 13 12 10 10 10 11 11 12 12 13 12 11 10 8 7 8 8 8 7 7 7 6 5 4 3 2 1 -1 -2 -2 -2 -3 -3 -3 -3 -3 -2 -2 -2
13 13 13 14 14 13 12 11 11 11 11 12 12 13 13 12 12 11 9 8 8 7 8 8 8 7 7 7 6 5 4 2 1 -1 -2 -2 -2 -3 -3 -3 -3 -3 -2 -2 -2
12 13 13 13 13 12 11 11 12 11 11 11 12 12 12 12 12 11 10 8 8 7 7 7 8 8 8 7 7 6 5 4 2 0 -2 -2 -2 -2 -2 -2 -2 -3 -3 -2 -2
12 13 13 13 12 11 10 11 11 10 9 10 12 12 12 12 11 11 10 9 8 7 7 7 8 8 8 8 7 6 6 5 4 2 -0 -1 -2 -2 -2 -2 -2 -3 -3 -3 -2
13 13 13 12 10 10 10 10 10 9 7 9 11 11 11 11 11 11 10 9 8 8 7 7 7 7 8 8 7 7 6 5 5 4 2 1 -1 -1 -2 -2 -2 -3 -3 -3 -3
13 13 12 10 9 9 9 9 8 6 5 7 9 9 9 9 10 10 9 9 8 7 7 7 7 7 7 7 7 7 6 5 5 4 3 3 1 -1 -1 -2 -2 -2 -3 -3 -3
12 12 10 9 8 8 7 7 5 4 4 6 7 7 7 7 8 8 7 7 7 6 6 6 6 6 6 7 7 6 5 4 3 2 3 3 3 1 -1 -1 -1 -2 -3 -3 -4
11 10 9 8 7 7 5 4 3 3 4 5 5 5 5 6 6 6 6 5 5 5 5 4 4 5 5 5 5 5 5 3 1 1 1 3 3 2 1 -1 -1 -1 -2 -3 -3
10 8 7 7 7 6 4 3 3 3 4 5 5 4 4 5 5 5 5 4 5 5 5 4 3 3 4 4 4 4 3 3 1 -0 0 1 2 2 2 1 0 -1 -2 -2 -2
7 7 6 6 6 5 4 3 3 4 5 5 4 4 4 4 5 5 4 4 5 5 5 4 4 3 3 4 4 3 2 2 1 -0 -0 -0 0 1 1 2 2 1 -1 -1 -2
6 5 6 6 5 4 3 4 5 5 6 5 5 5 4 4 4 4 4 5 5 6 6 5 4 4 3 3 3 3 2 1 0 -0 -0 -0 -1 -0 0 1 2 1 0 -1 -1
5 5 5 5 4 4 4 5 6 6 6 6 6 5 5 4 4 4 4 4 5 6 5 5 4 4 4 4 4 3 2 0 -0 -1 -0 -0 -0 -0 -0 1 1 2 1 0 -1
4 4 4 4 4 4 5 6 6 6 6 6 6 5 5 4 3 3 2 3 4 5 4 4 4 4 3 3 3 3 2 0 -1 -1 -0 -0 -0 -0 -0 0 1 2 2 1 -0
4 4 4 4 5 5 5 6 6 7 6 6 5 5 4 4 3 2 1 1 2 3 3 3 3 2 2 2 2 2 2 0 -1 -1 -1 -0 -0 -0 -0 -0 0 1 2 1 -0
3 4 4 5 5 6 6 6 6 6 6 6 5 5 5 4 2 1 1 1 1 1 1 2 2 2 2 2 2 2 2 1 0 -0 -0 -0 -0 -0 0 -0 -0 1 1 0 -1
4 4 5 5 6 6 6 6 6 6 6 6 5 5 5 4 3 1 1 1 0 0 0 0 1 1 1 1 1 2 3 3 2 1 1 0 0 0 0 0 -0 -1 -0 -0 -0
4 4 5 5 6 6 6 6 6 6 6 6 5 5 4 4 3 2 1 0 0 -0 -0 -1 -0 0 1 0 1 2 3 4 4 3 2 1 1 1 1 0 -1 -1 -1 -0 -0